sat.trackr.live / text

‹ back to catalog

STARLINK-4008

NORAD 52622 · 2022-052AA

PAYLOAD ACTIVE UNKNOWN

§ Identity

Operator
Country
US
Launch date
2022-05-14
Launch site
AFETR
Launch vehicle
Mass (kg)
RCS (m²)

Purposes: comms

External: N2YO · Heavens-Above · Gunter

§ Orbital elements

Epoch: 2026-09-20T04:42:02.175264Z

Period
93.79 min
Inclination
53.1589°
Eccentricity
0.0001212
Mean motion
15.35405602 rev/d
Perigee alt
458.9 km
Apogee alt
460.5 km
Semi-major
6,837.9 km
B*
-5.8411e-5
RAAN
117.8076°
Arg perigee
78.4301°
Mean anomaly
281.6838°
Rev number
24,032

§ Raw data

STARLINK-40081 52622U 22052AA  26263.19585851 -.00002418  00000+0 -58411-4 0  99982 52622  53.1589 117.8076 0001212  78.4301 281.6838 15.35405602240327

JSON: /api/v1/satellites/52622 · /tle

For live sub-satellite position, see the globe view (requires WebGL).

§ Visibility from observer

Set your observer location to see the next 7 days of passes ≥ 10°. The values pass through the URL so the page stays shareable.

No JS? Fill the form by hand. The geolocation button needs JavaScript.